Weather History for Ocala, FL

Change the Weather History Date:

Tuesday, January 1, 2013

  Actual Average Record
Temperature  
Mean Temperature 62 °F -  
Max Temperature 77 °F 66 °F 80 °F (2006)
Min Temperature 46 °F 41 °F 21 °F (2001)
Degree Days  
Heating Degree Days 4    
Growing Degree Days 12 (Base 50)    
Moisture  
Dew Point 49 °F    
Average Humidity 74    
Maximum Humidity 87    
Minimum Humidity 44    
Precipitation  
Precipitation 0.00 in - - ()
Sea Level Pressure  
Sea Level Pressure 30.13 in    
Wind  
Wind Speed 2 mph (SSW)    
Max Wind Speed 18 mph    
Max Gust Speed 24 mph    
Visibility 8 miles    
Events      
Averages and records for this station are not official NWS values.
T = Trace of Precipitation, MM = Missing Value Source: NWS Daily Summary

Daily Weather History Graph

Daily Weather History Graph

Search for Another Location

Airport:

Trip Planner

Search our weather history database for the weather conditions in past years. The results will help you decide how hot, cold, wet, or windy it might be!

Date:

Astronomy

Jan. 01, 2013 Rise Set
Actual Time 7:23 AM EST 5:42 PM EST
Civil Twilight 6:57 AM EST 6:08 PM EST
Nautical Twilight 6:27 AM EST 6:37 PM EST
Astronomical Twilight 5:58 AM EST 7:06 PM EST
Moon 9:50 PM EST (1/1) 9:54 AM EST (1/1)
Length of Visible Light 11h 11m
Length of Day
10h 19m
Waning Gibbous, 83% of the Moon is Illuminated
Jan 1
Waning Gibbous
Jan 4
Last Quarter
Jan 11
New
Jan 18
First Quarter
Jan 26
Full

Hourly Weather History & Observations

Time (EST) Temp. Windchill Dew Point Humidity Pressure Visibility Wind Dir Wind Speed Gust Speed Precip Events Conditions
12:15 AM 51.8 °F - 46.4 °F 82% 30.24 in 8.0 mi Calm Calm - N/A   Mostly Cloudy
12:35 AM 50.0 °F - 44.6 °F 82% 30.23 in 7.0 mi Calm Calm - N/A   Partly Cloudy
1:15 AM 48.2 °F - 42.8 °F 82% 30.21 in 5.0 mi Calm Calm - N/A   Clear
1:35 AM 48.2 °F - 44.6 °F 87% 30.20 in 4.0 mi Calm Calm - N/A   Clear
2:15 AM 46.4 °F 45.2 °F 42.8 °F 87% 30.20 in 0.8 mi North 3.5 mph - N/A   Unknown
2:35 AM 46.4 °F - 42.8 °F 87% 30.19 in 3.0 mi Calm Calm - N/A   Clear
2:55 AM 48.2 °F - 42.8 °F 82% 30.19 in 7.0 mi Calm Calm - N/A   Mostly Cloudy
3:15 AM 48.2 °F - 44.6 °F 87% 30.18 in 7.0 mi Calm Calm - N/A   Overcast
3:35 AM 51.8 °F - 46.4 °F 82% 30.18 in 9.0 mi Calm Calm - N/A   Overcast
3:55 AM 51.8 °F - 46.4 °F 82% 30.17 in 7.0 mi Calm Calm - N/A   Overcast
4:15 AM 53.6 °F - 48.2 °F 82% 30.17 in 7.0 mi Calm Calm - N/A   Overcast
4:35 AM 53.6 °F - 48.2 °F 82% 30.16 in 5.0 mi Calm Calm - N/A   Overcast
4:55 AM 53.6 °F - 48.2 °F 82% 30.16 in 6.0 mi Calm Calm - N/A   Overcast
5:15 AM 53.6 °F - 48.2 °F 82% 30.16 in 7.0 mi Calm Calm - N/A   Overcast
5:35 AM 53.6 °F - 48.2 °F 82% 30.16 in 8.0 mi Calm Calm - N/A   Overcast
6:15 AM 53.6 °F - 48.2 °F 82% 30.16 in 7.0 mi Calm Calm - N/A   Overcast
6:35 AM 53.6 °F - 48.2 °F 82% 30.16 in 7.0 mi Calm Calm - N/A   Overcast
6:50 AM 55.4 °F - 48.2 °F 77% 30.16 in 8.0 mi Calm Calm - N/A   Mostly Cloudy
7:50 AM 55.4 °F - 48.2 °F 77% 30.18 in 6.0 mi Calm Calm - N/A   Mostly Cloudy
8:50 AM 60.8 °F - 51.8 °F 72% 30.18 in 6.0 mi South 5.8 mph - N/A   Partly Cloudy
9:50 AM 66.2 °F - 53.6 °F 64% 30.17 in 10.0 mi SSW 10.4 mph - N/A   Partly Cloudy
10:50 AM 71.6 °F - 51.8 °F 50% 30.17 in 10.0 mi South 17.3 mph 20.7 mph N/A   Partly Cloudy
11:50 AM 73.4 °F - 53.6 °F 50% 30.13 in 10.0 mi SSW 18.4 mph 24.2 mph N/A   Partly Cloudy
12:50 PM 75.2 °F - 53.6 °F 47% 30.11 in 10.0 mi South 11.5 mph 19.6 mph N/A   Scattered Clouds
1:50 PM 77.0 °F - 53.6 °F 44% 30.08 in 10.0 mi SW 12.7 mph 17.3 mph N/A   Mostly Cloudy
2:50 PM 77.0 °F - 53.6 °F 44% 30.06 in 10.0 mi WSW 9.2 mph - N/A   Mostly Cloudy
3:50 PM 75.2 °F - 51.8 °F 44% 30.07 in 10.0 mi West 8.1 mph - N/A   Mostly Cloudy
4:50 PM 73.4 °F - 53.6 °F 50% 30.06 in 10.0 mi West 11.5 mph - N/A   Mostly Cloudy
5:50 PM 69.8 °F - 53.6 °F 56% 30.08 in 10.0 mi West 5.8 mph - N/A   Mostly Cloudy
6:50 PM 64.4 °F - 51.8 °F 64% 30.07 in 10.0 mi SSW 5.8 mph - N/A   Scattered Clouds
7:55 PM 60.8 °F - 51.8 °F 72% 30.07 in 10.0 mi Calm Calm - N/A   Clear
8:15 PM 59.0 °F - 50.0 °F 72% 30.07 in 10.0 mi Calm Calm - N/A   Clear
8:35 PM 57.2 °F - 51.8 °F 82% 30.07 in 10.0 mi South 3.5 mph - N/A   Clear
8:55 PM 57.2 °F - 50.0 °F 77% 30.07 in 10.0 mi Calm Calm - N/A   Clear
9:15 PM 55.4 °F - 50.0 °F 82% 30.07 in 10.0 mi Calm Calm - N/A   Clear
9:35 PM 55.4 °F - 50.0 °F 82% 30.07 in 10.0 mi South 3.5 mph - N/A   Clear
9:55 PM 55.4 °F - 50.0 °F 82% 30.07 in 10.0 mi Calm Calm - N/A   Clear
10:15 PM 55.4 °F - 48.2 °F 77% 30.07 in 10.0 mi Calm Calm - N/A   Clear
10:35 PM 55.4 °F - 48.2 °F 77% 30.06 in 10.0 mi South 3.5 mph - N/A   Clear
10:55 PM 55.4 °F - 48.2 °F 77% 30.07 in 10.0 mi Calm Calm - N/A   Clear
11:15 PM 55.4 °F - 48.2 °F 77% 30.06 in 10.0 mi Calm Calm - N/A   Clear
11:35 PM 53.6 °F - 48.2 °F 82% 30.06 in 10.0 mi Calm Calm - N/A   Clear
11:55 PM 53.6 °F - 48.2 °F 82% 30.05 in 10.0 mi Calm Calm - N/A   Clear